Miami, FL

10:42 PM EST on February 05, 2016 (GMT -0500)
Kendall-Tamiami Executive | | Change Station
CLOSE
Current Station
Airport
Location: Kendall,
Elevation: 10 ft
Nearby Weather Stations

Elev 10 ft 25.64 °N, 80.43 °W | Updated 49 minutes ago

Overcast
Overcast
63 °F
Feels Like 63 °F
N
9
Wind Variable Wind from North

Today
High -- | Low -- °F
--% Chance of Precip.
Yesterday
High -- | Low -- °F
Precip. -- in
Pressure 30.15 in
Visibility 10.0 miles
Clouds Few 2900 ft
Overcast 6000 ft
Dew Point 56 °F
Humidity 78%
Rainfall 0.32 in
Snow Depth Not available.
7:03 AM 6:08 PM
Waning Crescent, 8% visible
METAR KTMB 060253Z 01008KT 10SM FEW029 OVC060 17/13 A3016 RMK AO2 SLP210 T01720133 50003
Pressure 30.15 in
Visibility 10.0 miles
Clouds Few 2900 ft
Overcast 6000 ft
Dew Point 56 °F
Humidity 78%
Rainfall 0.32 in
Snow Depth Not available.
7:03 AM 6:08 PM
Waning Crescent, 8% visible
METAR KTMB 060253Z 01008KT 10SM FEW029 OVC060 17/13 A3016 RMK AO2 SLP210 T01720133 50003

10-Day Weather Forecast

Almanac

Astronomy

Feb. 05, 2016 Rise Set
Actual Time
Civil Twilight
Nautical Twilight
Astronomical Twilight
Moon
Length of Visible Light
Length of Day
Tomorrow will be .
, % of the Moon is Illuminated

Today's Extremes

State Highs State Lows

Community

WunderPhotos

Upload Photos

1,890,922 photos uploaded!

WunderBlog® & News

Nearby

Air Quality

  Air Quality AQ Index Pollutant
Not available.

Snow Depth

Station Depth Elevation

Earthquake Activity

City Distance Mag. Time & Date
Minimum magnitude displayed is 2.5.

Coastal Water Temperatures

Place Temperature

Stations

Nearby Weather Stations

Station Location Temp. Windchill Dew Point Humidity Wind Precip. Elev Updated Type
                   

Watches & Warnings

There are currently no watches in effect.